Regional Weather Roundup
Issued by NWS Cleveland, OH

Home | Current Version | Previous Version | Text Only | Print | Product List | Glossary Off
Versions: 1 2 3 4 5 6 7 8 9 10 11 12 13 14 15 16 17 18 19 20 21 22 23 24 25 26 27 28 29 30 31 32 33 34 35 36 37 38 39 40 41 42 43 44 45 46 47 48 49 50

341
ASUS41 KCLE 240410
RWRCLE
OHIO REGIONAL WEATHER ROUNDUP
NATIONAL WEATHER SERVICE WILMINGTON, OH
1200 AM EDT SUN JUL 24 2016

NOTE: "FAIR" INDICATES FEW OR NO CLOUDS BELOW 12,000 FEET WITH NO
SIGNIFICANT WEATHER AND/OR OBSTRUCTIONS TO VISIBILITY.

OHZ001>008-015>018-024>027-034-035-043-044-240500-
   NORTHWEST OHIO

CITY           SKY/WX    TMP DP  RH WIND       PRES   REMARKS
DEFIANCE       FAIR      78  71  79 CALM      29.97F
FINDLAY        FAIR      80  70  71 E5        29.99S
TOLEDO EXPRESS FAIR      75  73  93 CALM      29.97F
TOLEDO EXEC    FAIR      80  68  66 CALM      29.98F
LIMA           FAIR      79  74  84 S6        30.01S
$$

OHZ009>014-019>023-028>033-038-089-240500-
   NORTHEAST OHIO

CITY           SKY/WX    TMP DP  RH WIND       PRES   REMARKS
CLE-HOPKINS    FAIR      78  63  59 E3        30.03R
CLE-LAKEFRONT  FAIR      80  61  52 SE5       30.00R
CUY CO. ARPT   NOT AVBL
LORAIN-ELYRIA  FAIR      71  64  78 CALM      30.01S
ASHTABULA      FAIR      67  65  93 CALM      30.04R
AKRON-CANTON   MOCLDY    78  61  55 E6        30.03S
WOOSTER        MOCLDY    72  69  90 CALM      30.03S
MANSFIELD      FAIR      77  68  73 CALM      30.03F
YOUNGSTOWN     FAIR      67  62  84 E5        30.03S
$$

OHZ042-051>053-060>062-070>072-077>081-240500-
  SOUTHWEST OHIO

CITY           SKY/WX    TMP DP  RH WIND       PRES   REMARKS
CINC-COVINGTON FAIR      81  73  76 CALM      30.01F
CINC-LUNKEN    FAIR      76  75  97 CALM      30.00S
HAMILTON       FAIR      75  72  90 CALM      30.01S
DAYTON         MOCLDY    78  72  81 W3        30.02F
WRIGHT-PAT AFB FAIR      78  75  91 NE1       30.01S
DAYTON GENERAL FAIR      80  70  71 CALM      30.01F
WILMINGTON     FAIR      76  74  93 CALM      30.02S
$$

OHZ036-037-039>041-045>050-054>059-063>069-073>076-082>088-240500-
  CENTRAL AND SOUTHEAST OHIO

CITY           SKY/WX    TMP DP  RH WIND       PRES   REMARKS
COLUMBUS       CLOUDY    80  73  79 CALM      30.00S
OSU AIRPORT    FAIR      78  72  81 CALM      30.01S
BOLTON FIELD   FAIR      74  73  95 CALM      30.02S
RICKENBACK AFB FAIR      76  74  93 SE3       30.00S
NEWARK         FAIR      75  73  93 CALM      30.00F
MARION         FAIR      76  71  85 CALM      30.02S
LANCASTER      FAIR      73  73 100 CALM      30.01F
ZANESVILLE     FAIR      80  72  76 CALM      30.01S
NEW PHILLY     FAIR      76  72  87 CALM      30.02R
$$




USA.gov is the U.S. government's official web portal to all federal, state and local government web resources and services.